This is the latest recevied weather packets stored in our database for station/object WX6HNX-14. If no packets are shown the sender has not sent any weather packets the latest 1 day(s).
| Time | Temp. | Humidity | Pressure | Rain* | Wind** | Luminosity | Snow |
|---|---|---|---|---|---|---|---|
| 1778054184 | 11.67° C | 80% | 1018.7 hPa | 0 mm | - | - | - |
| 1778053885 | 11.67° C | 80% | 1018.7 hPa | 0 mm | - | - | - |
| 1778053584 | 11.67° C | 81% | 1018.7 hPa | 0 mm | - | - | - |
| 1778053284 | 11.67° C | 81% | 1018.7 hPa | 0 mm | - | - | - |
| 1778052685 | 11.67° C | 80% | 1018.6 hPa | 0 mm | - | - | - |
| 1778052385 | 11.67° C | 79% | 1018.6 hPa | 0 mm | - | - | - |
| 1778052085 | 12.22° C | 78% | 1018.6 hPa | 0 mm | - | - | - |
| 1778051785 | 12.22° C | 78% | 1018.5 hPa | 0 mm | - | - | - |
| 1778051484 | 12.22° C | 78% | 1018.4 hPa | 0 mm | - | - | - |
| 1778051185 | 12.22° C | 79% | 1018.3 hPa | 0 mm | - | - | - |
| 1778050584 | 12.22° C | 79% | 1018.2 hPa | 0 mm | - | - | - |
| 1778049084 | 12.22° C | 79% | 1018 hPa | 0 mm | - | - | - |
| 1778048785 | 12.22° C | 79% | 1017.8 hPa | 0 mm | - | - | - |
| 1778048484 | 12.78° C | 79% | 1017.7 hPa | 0 mm | - | - | - |
| 1778047929 | 12.78° C | 78% | 1017.6 hPa | 0 mm | - | - | - |
| 1778045230 | 15° C | 75% | 1017.5 hPa | 0 mm | - | - | - |
| 1778044929 | 15° C | 75% | 1017.5 hPa | 0 mm | - | - | - |
| 1778044329 | 15° C | 73% | 1017.5 hPa | 0 mm | - | - | - |
| 1778043429 | 15.56° C | 72% | 1017.3 hPa | 0 mm | - | - | - |
| 1778043129 | 15.56° C | 71% | 1017.4 hPa | 0 mm | - | - | - |
| 1778042569 | 16.11° C | 70% | 1017.2 hPa | 0 mm | - | - | - |
| 1778041930 | 16.11° C | 66% | 1017.1 hPa | 0 mm | - | - | - |
| 1778041628 | 16.11° C | 66% | 1017 hPa | 0 mm | - | - | - |
| 1778041329 | 16.11° C | 67% | 1016.9 hPa | 0 mm | - | - | - |
| 1778041028 | 16.11° C | 67% | 1016.9 hPa | 0 mm | - | - | - |
* Rain latest hour (hover to see other rain measurements)
** Current wind speed in m/s (hover to see current wind gust speed)